RH
39 40 42 44 48 52 56 58 58 61 63 64 68 71 72 77 83 86 89 91 92 90 83 78 76 77 69 53 40 37 46 58 62 58 55 52 48 46 46 45 45 46 46 46 46 46 46 46 46 47 47 47 46 46 45 45 44 44 44 42 41 39 38 34 31 28 25 23 19 16 13 11 9 7 7 7 7 7 6 7 7 7 6 6 8 10 11 13
42 43 43 43 47 55 61 66 69 70 71 73 79 82 84 87 89 93 94 91 90 89 84 81 77 69 54 42 42 54 66 67 62 56 51 48 45 45 44 44 45 44 44 44 44 44 45 45 44 45 45 45 45 44 44 43 41 39 35 30 26 22 19 15 12 11 9 8 8 7 6 6 6 7 9 10 9 8 9 9 8 7 8 10 12 17 23 27
48 48 46 44 47 55 62 69 73 75 78 85 92 96 99 96 91 91 91 91 93 91 85 80 69 55 45 48 61 73 73 64 57 51 46 44 44 44 44 45 44 45 45 44 45 45 44 44 43 43 42 42 41 38 34 30 25 20 15 11 9 7 6 6 5 6 6 7 8 8 8 8 9 13 17 17 15 13 15 17 17 16 15 16 18 24 35 45
53 52 49 49 50 56 62 68 74 80 86 93 100 104 105 97 91 90 91 93 94 90 83 70 55 50 58 71 76 72 64 57 51 46 44 44 44 44 44 44 44 44 44 44 45 44 43 42 40 38 34 31 26 20 15 11 8 6 5 6 6 6 7 7 8 9 10 12 13 14 14 15 19 24 25 24 27 29 28 29 33 36 34 33 33 34 42 54
54 53 54 55 56 59 64 72 80 87 91 92 95 101 103 97 93 90 89 90 86 78 65 53 53 66 79 81 73 63 55 50 46 44 44 43 43 44 44 44 43 44 44 44 43 41 39 34 29 22 17 13 9 6 5 5 6 7 8 10 11 11 12 12 13 16 19 22 24 26 27 31 36 36 33 34 40 43 42 42 42 45 49 51 51 49 48 52
52 54 57 60 62 65 70 77 84 89 91 90 90 95 100 99 96 90 84 76 63 52 49 58 74 83 81 71 61 53 48 45 43 43 44 45 46 45 44 45 45 44 42 38 33 27 21 15 11 7 6 5 6 7 8 10 12 15 17 18 20 22 23 22 25 30 35 39 42 45 47 53 57 52 49 48 49 49 51 55 54 54 56 58 60 61 59 57
50 53 57 60 63 67 71 76 80 84 87 89 90 90 92 91 84 72 59 48 45 54 70 82 85 77 66 56 49 45 44 44 43 44 45 46 46 46 46 45 41 36 28 20 14 9 6 5 6 7 9 11 13 15 17 19 21 24 28 29 31 34 37 38 41 45 49 56 60 60 61 65 66 63 62 59 55 55 57 63 66 66 65 64 65 67 69 70
49 51 55 58 63 67 70 72 75 77 79 78 75 69 63 55 48 43 44 53 69 82 86 81 70 60 51 46 44 43 44 44 44 45 46 46 46 43 37 30 22 14 9 6 5 6 8 10 12 15 17 20 22 24 26 29 31 36 41 43 45 50 55 59 62 64 66 70 73 71 70 70 68 69 72 69 65 66 68 74 78 80 78 75 74 75 78 82
48 50 53 56 59 60 59 57 54 51 47 43 38 35 35 38 45 57 69 79 84 79 70 61 53 47 44 42 42 43 44 44 46 45 43 38 31 23 15 9 6 5 6 8 10 13 16 19 22 25 28 31 35 38 41 46 49 53 58 62 64 67 71 74 75 77 78 79 79 77 76 76 74 75 77 77 77 77 78 83 88 91 90 88 86 87 90 92
41 42 42 41 39 35 32 28 27 26 27 31 36 45 55 65 74 78 78 72 65 57 50 46 42 41 41 41 42 45 44 41 38 31 23 16 9 7 5 6 8 11 14 18 21 25 28 32 36 39 43 48 52 55 58 62 65 67 71 75 77 79 80 81 81 82 83 84 83 80 79 79 78 79 80 80 83 84 85 86 89 92 93 92 92 92 94 95
28 27 25 23 22 22 25 29 35 41 49 58 66 73 77 76 73 67 60 53 47 43 41 40 40 41 41 41 42 40 32 24 17 10 7 5 7 10 12 16 20 24 27 31 35 39 44 48 52 57 61 64 67 70 72 74 77 78 78 79 81 82 82 83 83 84 85 86 86 82 79 79 80 80 80 80 82 84 85 85 85 86 86 85 85 86 86 87
20 22 23 26 30 36 42 49 57 63 69 73 72 70 65 59 54 49 45 42 40 39 39 40 40 39 36 33 28 20 12 7 6 6 10 14 18 22 25 31 35 39 44 47 52 57 62 66 69 72 74 76 78 78 79 79 80 80 79 80 83 88 91 92 92 93 95 97 96 91 85 83 87 89 86 87 87 88 89 91 91 88 87 84 83 82 81 80
28 32 36 40 45 50 55 59 63 63 62 59 54 49 45 43 40 38 38 37 37 37 37 35 30 25 19 14 9 6 7 9 14 18 23 28 33 38 43 49 54 59 63 65 69 73 75 76 76 77 77 78 80 80 81 84 87 90 94 95 97 101 103 102 101 101 101 101 101 100 93 88 93 99 99 100 101 102 101 103 103 100 99 98 95 94 91 89
38 42 45 47 49 50 51 50 48 45 42 39 37 36 35 34 33 32 32 30 29 26 22 17 11 7 5 6 8 12 19 24 30 35 41 47 51 57 61 66 69 71 72 73 73 74 76 76 77 79 81 84 88 91 95 100 104 105 107 106 105 106 105 105 105 105 104 103 102 103 102 96 98 103 104 106 107 108 107 107 107 105 105 105 104 104 101 100
36 36 37 37 36 35 34 33 32 30 30 29 29 28 27 25 23 20 18 15 12 9 6 5 5 7 10 14 19 28 37 43 49 54 59 62 63 66 67 68 68 70 72 74 76 78 81 84 88 92 95 99 102 104 106 108 108 106 104 103 100 98 98 99 98 98 98 97 93 93 93 90 91 94 93 93 93 96 97 96 99 100 101 102 103 104 102 101
22 22 22 23 23 23 23 23 22 22 21 20 18 16 13 11 8 7 5 4 3 4 7 11 16 21 25 31 38 47 52 56 59 60 61 61 63 65 67 71 75 78 81 82 85 88 91 93 96 96 96 96 93 92 89 85 83 79 77 75 74 72 72 72 69 69 69 68 66 62 60 60 61 62 61 61 60 62 62 63 65 67 70 72 74 77 78 79
15 15 15 15 15 15 14 14 13 12 10 8 7 5 4 3 3 3 4 6 9 15 21 27 35 40 44 47 51 55 56 56 57 58 62 65 68 71 75 79 81 81 80 79 79 78 79 77 75 72 69 67 63 61 58 56 54 53 52 52 53 52 51 53 54 53 52 50 47 42 38 37 38 39 40 40 39 39 39 39 39 39 40 41 41 42 43 44
9 9 8 8 8 7 7 7 6 5 4 3 3 3 4 5 7 10 14 19 25 32 38 43 47 49 50 50 51 54 54 56 61 66 70 72 73 74 74 72 69 66 62 59 57 55 53 50 48 47 44 43 42 42 43 44 45 48 50 51 53 54 53 53 56 57 57 54 51 47 44 42 42 44 44 44 43 42 42 40 40 39 39 38 38 37 36 35
5 5 5 5 5 5 4 4 4 4 4 5 7 9 12 16 21 27 31 36 39 42 44 45 47 48 50 51 53 56 59 63 66 67 66 66 64 61 58 54 50 47 44 42 40 38 38 37 37 38 39 41 43 45 47 49 51 53 55 55 56 58 57 56 55 55 56 54 52 49 48 46 45 44 42 41 40 39 37 36 36 35 35 34 34 34 33 33
5 5 5 5 5 5 6 6 6 7 10 14 19 25 30 34 38 41 41 41 41 41 43 47 50 52 54 55 57 59 60 60 58 55 52 49 46 43 40 38 37 36 34 35 35 37 39 41 44 47 49 52 53 54 54 53 53 51 50 48 46 45 44 42 41 39 38 37 35 34 32 31 30 29 28 27 26 25 24 23 23 22 22 22 22 22 21 21
5 6 6 7 7 8 10 12 15 19 24 29 34 38 40 41 41 41 42 41 42 45 49 53 55 55 55 55 54 52 50 46 43 40 37 35 33 33 33 33 35 37 40 44 47 49 51 52 53 52 51 48 46 44 41 39 37 35 34 32 31 30 29 28 28 27 26 26 25 24 23 23 22 23 22 22 22 22 22 22 21 20 20 20 19 19 18 18
7 9 10 12 15 18 21 25 29 33 36 36 37 38 39 39 40 43 45 47 49 50 51 52 52 51 48 45 42 39 36 33 31 31 31 32 34 37 41 45 48 50 52 53 52 51 49 46 42 39 36 33 31 30 29 28 27 27 27 26 26 25 25 25 25 25 24 24 24 22 21 21 21 21 21 21 21 21 21 21 20 20 20 19 19 18 17 17
18 20 23 26 28 30 32 34 35 36 36 36 37 38 40 41 44 47 47 49 49 47 45 43 41 39 36 33 31 29 28 28 30 34 38 42 47 51 53 53 52 49 46 43 40 37 34 32 30 29 28 27 27 27 26 26 25 25 24 23 23 22 21 21 21 22 22 22 22 21 20 20 20 19 20 20 20 21 21 20 19 18 18 17 16 16 16 16
30 32 32 33 34 35 35 35 36 36 36 37 38 40 43 44 46 45 43 43 42 37 35 32 30 28 27 26 27 28 32 37 43 48 50 51 51 49 46 42 39 36 34 31 30 29 28 28 27 26 26 25 25 24 24 24 24 23 22 22 21 21 21 20 20 21 23 24 23 23 22 22 22 23 25 25 26 25 22 20 19 17 16 15 14 13 13 13
33 34 34 35 36 36 37 37 37 37 38 38 39 40 41 41 40 38 36 33 30 28 26 25 24 24 26 31 35 41 46 50 52 50 47 44 40 37 35 32 31 29 28 27 27 26 25 25 24 24 24 23 23 24 25 26 27 27 27 27 26 26 26 26 26 26 28 29 28 27 26 25 26 29 31 32 32 29 25 23 20 18 17 15 14 13 12 11
36 37 37 37 37 37 37 37 37 37 37 36 36 36 35 34 32 30 28 26 24 23 24 25 30 36 41 46 49 50 49 45 43 39 36 34 32 31 29 28 28 27 26 25 24 24 24 24 25 26 26 27 28 29 30 31 32 32 32 32 32 31 31 31 31 30 30 31 31 30 28 27 28 30 33 34 33 31 29 26 23 21 19 17 17 15 14 13
38 38 37 36 36 36 35 35 34 33 32 31 31 30 29 28 27 25 24 24 25 27 32 38 46 50 50 49 46 42 39 36 34 33 31 30 29 28 27 26 26 25 25 25 25 26 27 28 30 31 32 33 34 35 36 36 35 35 34 34 34 33 33 33 33 32 31 32 32 29 27 25 25 28 31 31 30 29 28 26 24 23 21 20 19 18 17 16
37 36 35 34 34 33 32 31 30 29 29 28 28 27 26 25 23 24 25 26 30 38 45 48 50 48 44 40 37 34 33 32 30 29 28 27 26 26 26 26 26 27 28 29 29 29 31 33 35 37 37 37 37 37 36 35 34 34 33 32 32 31 31 31 31 31 30 31 32 28 26 23 21 25 28 26 26 25 24 25 24 24 23 23 23 21 19 16
35 34 33 32 31 31 30 29 28 28 27 27 26 24 23 22 24 28 30 31 38 46 48 45 43 39 36 33 32 31 30 29 28 28 27 27 27 27 27 28 29 30 30 31 32 33 35 38 38 38 38 36 36 34 33 32 31 30 30 30 29 28 29 30 31 31 32 36 39 33 28 25 21 26 31 29 27 26 25 25 24 24 24 24 23 21 18 16
33 31 31 31 30 29 28 28 27 27 25 24 23 22 23 27 31 33 35 39 44 45 42 39 36 33 31 29 29 28 26 26 26 26 26 27 28 29 30 33 35 35 34 35 36 38 39 39 37 36 35 34 34 33 32 31 29 28 27 27 28 28 30 34 37 38 39 45 51 46 36 30 26 26 29 29 26 25 24 23 22 21 20 19 17 16 15 15
32 31 30 30 29 28 28 27 25 24 23 22 23 26 32 35 35 36 39 42 42 39 36 33 30 28 27 26 25 25 24 25 25 26 28 30 33 37 39 42 44 43 41 40 39 38 36 35 35 35 35 35 35 35 34 33 31 31 29 27 27 28 31 35 37 39 40 43 48 44 34 30 27 22 21 21 19 19 18 18 17 16 15 14 14 14 13 13
31 30 29 28 28 28 26 24 23 22 22 24 30 35 39 37 36 38 41 40 37 34 31 28 26 25 25 25 25 25 25 27 29 32 35 38 41 43 44 43 41 39 39 39 39 38 37 38 39 39 38 36 35 35 35 34 33 31 30 27 24 22 23 25 25 26 28 30 34 32 22 21 21 18 16 16 14 14 13 12 12 11 12 13 13 13 12 12
30 28 27 27 27 25 23 22 22 23 26 33 39 40 38 36 38 40 38 35 32 29 27 25 24 24 24 25 26 27 28 31 35 37 39 41 41 40 38 37 36 36 38 40 43 44 43 43 44 42 39 36 33 31 30 29 28 28 26 24 22 20 18 18 17 17 16 19 27 28 22 21 20 18 18 17 13 13 11 10 10 11 11 11 11 10 9 9
27 26 26 25 24 22 21 22 24 29 37 43 42 38 36 38 39 37 33 30 27 25 25 25 25 26 27 27 29 31 33 36 37 38 39 38 37 36 36 37 38 40 42 43 46 46 43 40 39 37 34 33 32 31 31 31 31 30 30 29 28 26 24 23 21 19 16 16 21 23 22 24 23 17 17 16 13 13 11 11 11 11 11 10 8 8 7 6
26 25 25 23 21 21 23 25 32 40 46 44 38 37 39 39 35 31 28 27 25 25 25 26 27 28 29 30 32 34 36 37 37 37 36 36 36 38 39 40 42 43 43 44 45 47 47 43 37 34 34 35 37 37 37 37 36 33 32 31 31 30 29 27 26 25 21 17 18 18 18 24 25 18 15 13 12 12 11 11 11 10 9 7 6 6 5 5
25 25 23 21 22 25 28 35 44 48 45 39 37 39 38 33 29 27 26 25 25 26 26 27 28 29 31 33 34 36 37 37 37 36 37 39 41 42 42 42 42 41 40 40 40 43 49 48 41 41 45 46 47 47 42 38 36 35 34 34 33 32 31 29 26 24 21 16 15 15 15 21 21 15 13 12 10 9 9 9 8 8 7 5 5 5 5 5
25 23 21 22 27 32 39 47 51 47 40 38 38 36 32 28 27 26 25 25 26 27 28 29 30 32 33 35 35 36 37 37 39 40 42 44 44 44 43 41 38 37 36 37 37 38 45 51 48 47 54 55 53 50 47 46 46 42 39 35 32 30 30 30 26 21 18 13 11 13 17 20 17 11 10 9 8 9 9 8 8 7 6 5 5 5 5 5
24 22 23 30 38 43 48 51 48 41 38 37 36 32 29 27 26 25 25 27 28 29 30 31 33 34 34 35 36 37 39 41 43 44 44 45 44 42 40 38 36 36 35 36 38 39 45 54 54 51 53 55 56 56 56 56 52 46 42 38 34 30 25 25 23 20 16 12 9 10 17 21 16 9 9 9 8 9 8 8 7 5 5 5 4 4 4 4
23 24 32 41 47 50 52 48 42 38 38 36 32 29 27 26 25 26 28 29 29 30 33 34 34 34 35 36 38 40 42 44 44 44 44 43 42 40 38 38 38 38 40 40 42 45 49 55 57 56 56 57 61 62 58 52 46 45 48 49 43 35 27 24 23 22 19 14 9 7 12 22 20 10 9 10 8 8 7 6 5 4 4 4 4 4 4 3
26 33 43 50 52 52 49 43 39 38 37 33 30 28 26 25 27 28 29 29 31 33 34 34 35 37 40 42 43 43 44 44 43 43 43 43 43 43 43 44 44 45 46 47 48 52 55 55 56 59 62 64 64 57 46 41 41 42 45 43 38 33 29 25 21 21 21 16 11 7 9 20 21 12 10 11 8 8 7 5 5 4 4 4 3 3 3 3
36 46 53 53 53 51 45 40 39 37 34 31 28 26 25 27 29 29 30 32 34 34 34 36 41 44 46 46 46 45 43 43 44 45 46 47 48 50 50 51 52 52 53 53 54 55 56 57 57 57 59 61 63 60 54 48 45 43 40 36 33 30 27 21 15 14 18 18 16 12 12 20 21 13 11 12 9 8 7 5 4 3 3 3 3 3 3 3
50 56 56 53 52 48 42 39 37 34 31 28 26 26 27 29 30 31 33 33 34 36 39 44 47 48 48 48 47 45 45 46 49 51 52 53 53 54 55 56 57 58 57 57 57 57 57 60 62 62 63 66 68 66 59 47 37 34 36 35 33 30 25 20 14 11 14 19 19 14 13 19 21 15 12 12 8 7 6 5 4 3 3 4 3 3 3 3
59 58 55 53 50 45 40 37 34 31 29 27 26 27 29 30 32 33 33 34 38 42 46 48 48 48 47 47 46 48 51 53 53 54 55 55 55 56 57 58 59 61 60 58 57 58 57 58 61 62 67 79 85 77 65 59 56 53 50 44 37 36 32 23 17 15 16 21 22 14 11 15 17 14 12 10 8 7 6 5 4 3 3 4 3 3 3 3
60 56 55 53 48 41 37 34 32 29 27 27 28 30 31 32 32 34 36 40 44 47 48 48 48 47 47 47 50 54 56 56 55 55 55 54 54 55 57 60 62 62 61 58 56 56 56 58 59 55 55 64 73 71 65 74 88 88 79 64 51 50 46 33 24 20 16 20 24 17 11 11 12 11 10 9 7 6 5 4 3 3 3 4 3 3 3 3
58 56 54 50 43 37 35 33 29 27 28 30 31 31 31 33 35 38 42 45 47 48 49 49 48 49 51 53 56 59 59 59 57 55 54 53 53 55 59 62 64 65 62 59 57 56 57 60 63 60 55 56 65 67 60 67 84 91 87 75 63 64 62 45 30 21 14 16 20 17 12 10 9 10 9 7 5 4 4 3 3 3 3 4 3 3 4 3
57 57 52 44 38 35 33 30 27 28 31 31 31 31 33 37 40 43 45 47 49 50 49 49 51 55 60 63 65 67 66 62 60 58 56 55 54 57 62 65 66 68 66 63 61 60 60 62 69 72 70 72 82 83 72 71 80 87 85 74 66 74 73 49 29 20 14 14 15 13 12 10 8 8 7 5 4 3 3 3 2 3 3 3 4 3 3 3
58 55 47 39 36 34 31 28 28 31 32 30 31 34 38 42 44 46 47 48 49 50 50 53 58 63 69 74 77 78 75 70 67 64 62 62 60 60 65 69 70 71 70 68 66 64 63 64 72 81 85 88 93 91 79 74 80 84 80 68 68 83 78 47 27 20 15 14 12 9 10 9 7 7 6 5 4 3 3 3 2 3 3 3 3 3 3 3
57 50 42 37 35 32 28 28 31 32 31 31 35 40 43 44 46 47 48 49 49 52 57 62 67 71 77 80 80 79 79 80 78 73 69 69 66 64 67 71 73 74 73 70 67 65 65 65 71 82 90 94 97 91 76 69 75 79 74 67 75 90 81 48 26 19 15 14 12 8 9 9 7 7 7 5 4 3 3 3 2 3 3 3 3 3 3 3
54 45 39 37 34 29 28 31 32 30 32 36 40 43 44 46 47 47 47 50 55 61 66 71 77 81 83 80 76 74 76 79 80 76 72 70 69 68 68 71 73 74 72 69 68 66 66 68 73 81 87 90 92 85 70 65 71 73 70 70 75 85 86 59 28 15 13 13 12 9 9 9 7 7 7 6 4 3 2 2 3 3 3 3 3 3 3 3
49 42 39 36 30 28 30 32 31 32 36 40 42 43 45 47 48 48 51 58 64 70 76 82 86 87 83 78 74 72 72 73 74 74 71 68 69 69 70 70 72 72 72 70 69 68 68 69 73 77 80 83 84 80 67 62 71 75 72 69 65 70 80 63 27 11 11 9 9 10 8 7 7 6 7 6 4 3 2 2 3 3 3 3 3 3 3 3
46 42 38 32 28 29 32 31 32 36 39 42 44 45 47 48 49 54 61 67 72 79 85 89 89 86 81 76 73 73 73 73 73 72 69 67 69 70 70 70 70 72 73 71 70 70 68 66 68 69 71 74 79 78 65 55 67 77 67 56 51 51 59 53 28 12 12 10 8 9 7 6 6 5 5 6 5 4 3 3 3 3 3 3 3 3 3 3
46 42 34 29 28 30 31 32 35 39 41 44 47 47 48 50 55 62 68 74 80 86 88 87 85 83 79 77 76 76 77 76 73 72 71 69 69 70 69 70 70 72 73 70 69 70 66 61 61 62 61 63 66 67 61 53 61 67 52 40 41 36 35 40 29 11 9 11 8 8 7 6 6 5 5 5 5 4 3 2 3 3 3 3 3 3 3 3
Wind_Speed
30 30 30 31 32 32 32 33 33 34 35 36 37 38 38 40 40 41 41 42 43 44 46 47 48 49 49 49 49 48 46 45 45 45 45 45 46 46 47 48 48 49 50 50 51 52 53 54 55 56 58 59 61 63 64 66 67 69 70 72 73 74 74 75 74 74 75 75 77 77 75 73 72 71 69 67 67 67 66 66 67 68 68 68 67 66 66 67
30 31 31 32 33 34 34 35 36 37 38 38 38 39 41 42 43 43 44 44 45 47 48 49 50 50 50 49 48 47 46 46 46 46 46 46 47 47 48 49 50 51 52 53 54 55 57 57 58 59 61 63 65 66 67 69 70 71 71 71 72 71 71 70 68 68 67 67 68 67 65 63 61 60 59 59 60 59 58 59 60 61 61 59 58 58 59 60
31 32 33 34 34 35 36 37 38 39 40 40 41 41 43 45 45 45 46 47 48 49 50 51 51 50 50 48 47 46 47 47 48 48 47 48 48 49 50 51 52 53 54 55 57 58 60 61 62 63 64 66 68 68 69 68 68 67 65 63 63 62 61 60 58 58 57 56 57 56 55 53 52 52 52 51 53 54 52 53 54 54 54 54 54 53 54 55
33 34 34 35 36 36 37 39 40 41 41 42 43 43 45 46 46 47 48 49 51 52 52 52 50 49 48 47 47 47 48 48 49 49 49 49 50 51 52 53 54 55 57 58 60 61 63 64 65 66 66 67 66 64 62 60 57 55 52 51 52 51 50 49 48 48 47 46 47 47 46 46 46 47 47 46 48 50 49 48 49 50 51 51 52 51 51 52
34 35 36 36 37 38 39 40 41 42 43 44 44 45 47 48 48 49 50 51 52 52 52 50 48 47 47 47 48 48 48 49 49 50 50 51 52 53 55 56 57 58 60 61 62 64 65 65 64 63 61 59 56 53 50 48 45 44 42 41 42 42 41 40 40 40 39 39 40 41 41 41 44 45 45 44 45 47 47 47 47 48 48 49 51 51 51 51
35 36 36 37 37 38 39 40 42 43 45 46 46 47 48 49 50 51 51 52 51 49 47 45 45 46 47 48 48 48 49 49 50 51 52 53 55 56 57 59 60 62 63 63 63 62 60 58 55 51 48 46 44 42 41 39 37 36 35 35 35 36 36 35 35 35 35 36 36 38 38 40 43 44 44 44 44 45 45 45 46 46 47 48 49 50 51 52
35 36 36 37 38 39 40 41 43 44 45 47 48 48 49 50 50 50 50 48 46 44 44 45 46 47 47 48 48 49 49 50 51 52 54 55 57 58 60 62 62 62 61 58 55 51 48 45 42 40 38 37 36 35 34 34 33 32 32 33 33 33 34 35 35 36 36 37 37 38 39 41 44 45 45 46 46 46 46 46 46 47 48 49 49 51 52 52
35 36 37 37 39 40 41 43 44 45 46 47 48 48 48 47 47 46 44 43 42 43 44 46 47 47 47 48 49 50 51 52 53 54 56 58 59 60 60 59 57 53 49 45 42 39 36 35 34 33 32 32 32 31 31 32 31 32 33 34 34 34 35 36 36 38 39 40 41 41 42 45 47 47 49 49 49 48 49 49 50 51 52 52 52 53 54 55
36 37 38 39 40 41 42 42 43 43 43 43 43 43 42 41 40 40 40 41 42 44 45 46 47 47 48 48 49 51 52 54 55 57 58 58 57 55 51 47 43 39 36 34 32 30 30 29 29 29 29 30 30 31 31 32 32 33 34 36 36 36 37 38 39 40 42 43 45 46 46 48 49 50 51 52 51 51 51 52 54 55 56 57 56 56 58 59
36 37 37 37 38 38 37 37 37 37 36 36 36 36 37 37 38 39 41 42 43 44 45 46 47 48 49 50 51 53 54 55 56 55 53 49 45 41 37 34 31 29 28 27 26 26 27 27 28 29 29 30 31 32 33 33 34 35 35 37 38 39 40 41 42 43 45 47 49 50 50 51 53 54 55 54 53 54 55 56 57 59 61 62 62 62 62 64
33 33 33 33 32 32 31 31 31 31 31 32 33 35 36 37 39 40 42 43 44 45 46 47 48 49 50 51 53 54 53 51 48 43 39 34 30 28 26 25 24 24 24 24 25 26 27 28 29 30 31 32 33 34 35 35 37 37 38 39 41 42 43 45 46 48 49 52 55 56 56 55 56 57 58 58 57 57 59 60 62 64 65 66 67 68 68 69
28 28 28 28 28 27 28 28 29 30 31 33 34 36 37 38 40 41 42 43 44 45 46 47 49 50 51 51 50 47 42 37 32 28 25 23 22 21 21 21 22 23 24 25 27 28 29 30 30 31 33 34 35 37 38 39 41 42 43 44 45 47 48 49 51 52 54 57 60 63 63 60 59 61 63 63 62 63 64 65 67 69 71 72 73 74 74 75
24 24 25 25 26 27 27 29 30 31 33 34 35 36 37 39 40 41 42 43 44 46 47 48 48 46 45 42 37 31 26 22 20 18 18 18 19 20 21 23 24 25 26 27 28 29 30 32 33 34 36 37 39 40 42 44 45 47 48 49 50 50 52 54 55 56 57 60 64 68 69 66 63 64 66 67 68 68 69 70 72 74 76 78 79 80 81 81
22 23 24 25 27 28 29 30 31 32 33 34 35 36 38 39 40 41 42 43 44 44 43 41 38 34 30 26 21 17 15 14 15 16 17 19 20 22 23 24 25 27 28 29 31 32 34 35 37 39 40 41 43 44 45 47 48 50 51 53 54 55 57 58 59 61 62 64 67 71 74 72 69 69 70 71 72 73 75 76 77 79 81 83 85 86 87 87
23 24 25 26 27 28 29 30 31 32 33 34 35 36 37 37 38 38 38 38 36 34 30 26 22 19 16 14 12 11 12 14 16 18 19 21 22 24 25 26 28 30 31 33 34 36 38 39 40 42 43 44 46 47 48 50 51 53 54 56 58 59 61 62 63 66 68 70 72 74 77 76 74 74 75 76 77 78 79 80 82 83 85 87 89 91 92 93
23 24 25 26 27 28 29 30 30 31 32 32 32 32 32 31 30 29 27 25 22 19 15 12 10 10 10 10 11 12 15 17 18 20 22 23 25 26 28 30 32 33 35 36 37 39 40 41 43 44 46 47 49 50 52 53 55 56 57 59 61 62 64 66 67 69 71 74 76 79 80 78 77 78 80 80 81 82 84 85 86 87 88 90 92 94 96 97
22 23 24 25 26 26 27 27 27 27 26 25 24 22 21 19 17 15 13 11 8 6 6 7 8 9 10 12 14 15 17 19 21 23 25 26 28 29 31 32 34 36 37 39 40 41 43 44 46 47 49 50 52 54 55 57 59 60 62 63 65 66 67 69 71 73 74 77 80 82 83 81 80 81 83 84 85 86 88 89 90 91 92 93 94 96 98 99
19 20 20 20 20 20 20 20 19 18 16 14 12 10 8 7 5 4 3 2 3 5 6 8 9 12 13 15 17 18 20 22 24 26 28 29 30 32 34 35 37 39 40 42 43 45 46 48 49 51 52 54 56 57 58 60 62 63 65 66 67 70 71 72 73 75 77 80 83 85 87 86 85 85 86 87 88 89 91 93 94 95 96 96 97 98 100 101
13 12 12 12 12 12 11 10 9 7 5 3 1 1 2 3 3 4 5 5 6 7 9 11 13 15 17 19 21 22 23 25 26 28 29 31 33 34 36 38 40 42 43 45 46 48 49 51 52 54 55 57 58 59 61 62 64 65 66 68 68 71 74 75 76 78 79 81 85 87 88 89 89 90 90 91 91 93 94 95 96 98 99 99 100 100 101 103
7 6 6 5 5 4 4 4 4 5 7 8 8 8 8 7 7 7 7 8 9 11 13 15 17 19 20 21 23 24 25 27 28 30 32 34 35 37 39 41 42 44 45 47 48 50 51 53 54 56 57 58 60 62 63 64 66 67 68 70 71 71 74 76 78 80 80 81 84 87 88 88 90 91 91 92 93 94 95 96 97 98 99 100 101 101 102 103
10 10 10 10 11 11 11 12 12 12 12 12 11 10 9 8 8 8 9 11 13 15 16 17 18 20 21 23 24 25 27 29 30 33 34 36 38 39 41 43 44 46 47 48 50 51 53 54 56 58 59 61 62 63 65 66 67 68 69 70 72 72 73 75 78 79 81 81 83 86 86 86 88 89 90 91 92 94 95 96 97 98 99 100 101 101 102 103
17 17 17 17 17 17 16 16 15 14 12 11 10 9 9 9 10 11 13 14 15 16 17 18 19 21 23 24 26 28 30 31 33 35 37 38 40 41 43 44 46 47 48 50 51 53 54 56 57 59 60 61 62 63 65 66 66 67 68 69 70 71 71 72 75 78 80 80 82 84 84 84 85 86 87 88 89 91 92 93 94 96 97 98 99 99 100 101
23 22 21 21 19 18 17 15 14 12 11 10 10 10 10 11 12 13 13 14 15 17 18 20 21 23 25 26 28 30 32 33 35 37 38 39 41 43 44 46 48 49 50 52 53 54 55 56 57 58 59 59 61 62 63 64 65 65 66 67 68 70 70 69 70 74 78 80 82 83 83 82 84 84 86 88 90 91 92 93 94 95 96 97 97 97 98 99
24 23 21 20 18 17 15 14 13 12 11 11 11 11 11 12 12 13 14 16 17 18 20 22 23 25 26 28 30 32 33 35 36 38 39 40 42 44 46 47 49 50 51 52 52 52 53 54 55 55 56 57 58 60 61 64 66 67 68 69 70 72 73 73 73 75 78 82 85 87 87 85 86 88 90 93 95 96 96 96 97 98 98 98 98 97 97 98
22 21 19 18 17 15 14 13 12 11 11 11 11 11 12 13 14 15 16 18 19 20 22 24 26 27 29 30 32 33 34 36 37 39 41 42 43 45 46 48 49 49 50 50 50 50 51 53 54 55 57 58 60 61 63 65 68 70 72 73 75 76 77 79 80 80 81 83 87 91 91 89 89 91 94 96 99 100 101 101 102 102 102 102 102 101 100 100
20 18 17 16 15 14 13 12 12 12 11 12 12 13 13 14 15 17 18 20 22 23 24 27 28 30 31 32 33 34 36 37 39 40 42 43 44 44 45 46 47 47 48 49 50 51 53 55 57 58 60 61 62 64 66 67 68 70 72 74 75 77 78 79 81 82 82 83 86 90 92 91 90 92 95 97 100 102 104 105 106 106 106 106 106 106 105 105
17 16 15 14 13 13 13 12 12 12 13 13 14 15 16 17 18 19 20 22 24 26 27 29 30 31 32 33 34 36 37 39 39 40 40 41 42 43 44 44 46 48 49 51 52 54 56 57 58 60 61 62 63 64 65 67 67 69 71 72 73 75 76 77 79 80 81 81 84 88 90 90 88 89 93 95 98 101 103 105 106 107 108 108 108 108 109 109
15 15 14 14 14 13 13 14 14 15 16 17 17 18 19 19 20 21 23 24 25 27 29 30 31 32 34 35 36 37 37 37 38 38 40 40 42 43 45 46 48 49 51 53 54 56 57 57 58 59 61 62 63 63 65 66 67 69 70 71 73 74 75 76 78 79 80 80 82 86 88 89 87 86 91 94 96 99 101 103 105 106 107 108 109 109 110 110
15 15 15 15 15 15 16 16 17 17 18 18 19 20 20 22 22 23 24 25 27 29 30 32 33 34 35 35 35 35 35 35 36 38 40 42 43 45 47 49 50 51 53 54 56 57 57 57 58 59 60 62 64 65 66 67 68 69 70 71 73 74 75 76 77 79 79 78 81 84 87 89 86 84 88 93 95 97 99 101 103 104 105 106 107 109 109 109
15 15 16 15 16 17 17 17 18 19 19 20 21 22 23 24 23 24 25 28 29 30 31 33 34 34 33 33 32 32 33 35 36 38 40 43 45 47 49 51 53 55 57 58 57 58 58 58 59 60 61 62 64 66 67 68 69 70 70 70 70 72 72 73 75 76 75 74 75 80 84 88 88 85 87 91 93 96 97 99 100 101 102 103 104 105 105 105
15 15 16 16 17 18 18 19 19 20 21 22 23 24 23 23 23 26 28 30 31 32 32 33 32 32 31 31 32 33 35 37 39 41 43 45 47 49 50 50 51 55 57 58 58 58 58 59 60 60 61 61 63 65 68 69 70 70 71 71 70 69 67 67 70 71 71 70 71 76 80 84 87 87 88 90 92 94 95 96 96 96 97 99 100 100 100 101
15 15 16 17 18 19 19 20 21 22 23 23 24 23 22 23 26 30 31 31 31 32 32 31 31 31 31 32 34 36 38 40 41 43 43 44 44 44 45 45 46 49 51 54 57 58 59 60 60 61 62 62 62 63 65 68 69 70 71 73 73 71 68 66 67 67 67 68 70 75 78 80 83 86 88 90 91 93 94 94 94 94 95 96 97 98 97 97
15 16 17 18 19 19 20 21 22 22 23 23 23 22 24 28 31 32 31 31 31 31 31 30 30 31 32 34 36 38 39 40 40 41 41 42 43 44 45 47 48 50 51 53 55 57 58 59 60 61 62 63 63 63 64 66 68 70 72 73 75 76 75 72 72 71 69 67 68 73 77 77 79 82 86 89 89 90 91 92 92 92 93 93 93 94 93 93
16 18 19 20 20 20 21 22 22 23 23 23 23 25 29 32 32 32 32 31 31 30 30 30 31 33 35 36 38 39 40 40 40 41 41 43 45 47 49 50 51 52 53 54 55 57 58 58 59 61 62 64 65 66 66 67 68 69 71 74 76 79 80 80 79 80 79 75 72 75 78 78 80 82 84 86 87 88 88 87 87 88 89 89 88 87 88 88
19 20 20 20 21 22 23 23 23 25 25 26 27 30 32 32 32 32 31 30 30 29 29 30 32 34 36 37 38 38 39 40 41 42 44 46 47 49 50 50 51 52 52 53 54 57 60 61 61 62 64 65 66 67 67 67 68 69 71 73 75 77 80 81 81 83 85 83 79 79 80 81 85 86 86 86 85 85 84 82 83 84 85 84 82 81 82 82
22 22 21 22 23 24 24 24 26 26 27 30 32 33 33 33 32 31 29 28 28 29 30 32 33 35 36 37 38 39 40 41 43 45 46 48 49 50 51 51 51 52 52 53 53 54 56 60 62 62 63 64 65 66 67 67 68 69 70 72 73 76 79 81 81 82 85 85 82 82 81 83 88 89 86 86 84 82 82 81 82 83 83 81 80 80 80 79
23 22 22 23 24 24 25 27 27 28 30 34 35 34 33 32 30 28 28 28 29 30 32 33 35 35 36 37 39 40 42 44 45 47 48 50 51 52 52 53 53 53 53 53 53 53 53 56 60 60 61 63 64 65 67 68 69 70 71 72 73 75 78 81 84 85 86 86 83 82 82 85 91 91 87 87 85 84 86 86 85 84 83 81 80 80 79 78
23 23 23 24 24 25 27 28 28 31 34 36 34 33 31 29 28 27 28 29 31 32 33 34 35 36 37 38 40 41 42 45 47 49 50 51 52 53 54 54 54 54 54 53 53 53 51 53 57 58 59 62 64 65 67 68 69 71 72 74 76 78 78 81 86 88 90 90 86 83 83 89 94 92 90 90 90 91 91 90 88 85 83 82 80 78 76 75
23 23 23 23 24 27 29 29 31 35 37 35 33 31 29 28 27 28 30 31 32 33 34 34 35 37 38 39 40 41 43 46 48 49 51 52 54 55 56 56 56 55 54 54 53 53 53 53 56 58 60 62 64 65 66 67 68 69 72 73 75 78 79 80 84 89 92 93 89 85 84 92 97 94 93 94 94 93 93 91 89 86 83 82 78 74 73 72
24 23 23 25 27 29 30 32 36 37 35 32 31 29 28 28 29 30 31 32 33 33 34 35 37 38 39 40 41 44 46 48 49 51 53 55 57 59 59 58 58 57 57 56 56 55 56 56 57 59 62 64 66 67 68 69 70 70 72 74 75 77 79 80 81 86 91 94 93 91 89 93 99 97 96 97 95 95 95 94 91 87 83 80 75 73 72 70
23 23 25 27 29 30 33 36 37 35 32 31 29 28 29 30 31 32 32 33 33 34 35 36 37 38 40 42 45 47 48 50 52 55 57 59 60 61 61 61 60 60 59 59 59 58 59 60 61 62 64 66 68 70 72 72 73 74 75 77 78 79 81 83 82 84 90 95 96 97 94 95 100 99 98 98 96 94 95 94 90 84 80 77 73 72 71 69
23 25 27 29 31 34 37 38 35 32 31 29 29 29 31 31 32 32 32 33 34 34 35 36 37 39 42 45 48 50 52 54 56 58 60 61 62 62 63 63 63 63 63 62 62 62 63 64 66 67 69 71 73 74 74 74 74 75 77 79 80 81 83 86 87 88 91 94 96 97 95 95 101 101 99 98 95 93 93 92 89 81 75 73 70 69 68 66
24 26 29 31 33 36 37 36 33 31 30 29 30 32 32 32 32 33 33 33 34 34 35 37 39 42 45 48 50 53 55 57 58 60 61 63 63 64 65 66 67 67 67 67 67 68 69 70 70 71 72 73 74 74 74 75 76 77 78 80 82 84 86 89 91 93 94 94 97 98 93 92 98 100 98 97 94 92 92 91 86 77 70 68 67 65 63 61
26 28 31 33 35 37 37 34 32 30 30 31 32 33 32 32 32 32 33 33 34 35 37 39 43 45 48 50 53 55 57 59 61 62 63 65 66 67 68 69 70 71 72 72 73 73 75 76 78 77 76 76 76 76 75 76 79 81 83 85 86 89 91 93 95 96 95 93 97 101 95 90 94 97 96 95 92 89 87 85 80 75 70 66 64 62 61 59
28 30 31 33 36 37 35 32 30 31 32 33 33 32 32 32 32 33 33 34 35 37 40 43 46 48 51 53 55 58 60 62 64 65 66 67 69 70 71 72 73 74 75 76 77 78 79 80 82 85 85 85 85 86 85 84 85 87 88 90 91 93 95 97 98 99 97 93 95 102 100 92 90 92 92 91 88 86 84 79 74 73 71 68 64 60 58 57
29 31 32 35 37 35 32 30 31 32 32 32 31 31 32 32 33 34 34 36 38 40 43 46 48 51 54 56 58 60 62 64 66 68 69 70 71 72 72 73 74 75 77 78 79 81 82 83 84 87 88 89 89 90 91 90 90 90 91 92 93 95 97 99 100 101 100 96 95 98 101 98 92 90 90 89 87 86 83 77 71 68 67 65 62 59 56 55
30 32 34 36 35 33 31 30 31 32 31 31 31 32 32 33 34 36 37 39 41 43 46 48 50 52 55 57 59 62 64 66 69 70 72 73 73 73 73 75 76 77 78 80 81 82 83 84 84 85 87 87 88 89 90 91 90 91 92 93 94 96 98 99 101 102 102 101 97 94 97 98 94 91 91 91 89 87 83 75 69 65 62 60 58 56 55 53
31 32 35 35 33 31 30 31 32 31 30 30 31 33 33 35 36 37 39 41 44 46 48 49 51 53 55 57 59 62 65 68 70 72 73 74 75 75 75 76 77 78 79 80 82 83 85 85 85 85 85 86 86 88 90 90 90 90 91 92 93 95 97 99 102 103 102 102 100 96 94 96 95 92 91 90 89 86 79 70 65 64 61 59 57 56 54 53
31 33 34 33 31 29 30 31 31 29 29 31 32 34 35 36 38 40 42 45 47 48 49 50 52 54 56 58 60 62 65 67 69 72 73 74 75 75 76 76 78 79 80 81 83 84 85 86 86 85 86 86 86 88 90 90 89 90 92 92 93 94 97 99 102 102 99 99 101 100 96 95 95 93 91 88 87 85 77 68 65 65 62 59 58 56 54 53
32 33 33 31 29 29 31 30 29 28 30 32 34 35 36 38 40 43 46 47 48 49 50 52 54 56 58 60 62 65 66 68 70 71 73 74 74 75 76 77 78 80 81 82 84 85 86 87 87 86 87 87 87 88 90 91 90 91 92 92 91 92 94 98 101 101 98 96 97 99 98 95 94 93 91 89 88 87 79 69 65 65 62 58 56 54 53 52
32 33 31 28 28 29 30 28 27 29 31 33 35 36 38 40 43 46 48 49 49 50 52 53 55 58 60 62 65 67 69 70 71 72 73 74 75 76 77 78 80 81 81 82 84 85 86 87 88 88 88 89 89 90 91 91 91 91 92 91 91 92 93 96 101 103 102 101 99 98 97 95 93 91 88 86 87 87 79 69 63 61 59 57 54 52 51 49
32 30 28 27 28 29 27 26 27 30 33 34 36 38 40 43 46 48 50 50 51 52 53 55 57 60 63 65 68 69 70 72 73 74 75 76 76 77 78 80 81 81 81 83 84 86 88 89 90 91 90 90 91 91 93 93 91 90 93 94 94 94 93 96 101 102 103 104 104 100 97 93 90 89 85 82 84 86 79 70 64 60 56 55 54 52 50 48
Wind_Direction
229 232 236 239 241 244 246 250 253 256 259 262 265 267 270 271 273 275 277 279 281 283 285 286 287 288 289 290 290 290 290 290 290 290 290 291 291 291 291 290 290 290 289 289 288 287 286 285 285 284 284 284 283 283 282 282 282 282 282 282 282 281 280 280 279 278 278 277 277 278 278 278 279 280 279 276 274 273 273 272 270 269 269 269 269 268 267 266
232 236 239 242 244 246 249 252 256 258 261 264 267 270 272 273 274 277 278 280 283 285 286 287 288 289 290 290 290 290 290 290 290 290 290 291 291 291 291 291 291 290 290 289 289 288 287 287 286 285 285 285 284 284 284 284 284 284 284 284 283 282 281 281 280 279 279 279 279 279 280 281 281 280 278 276 275 275 274 273 272 272 272 271 269 268 267 267
235 238 241 244 246 249 252 255 257 260 263 265 268 271 273 274 276 278 280 282 284 285 286 287 288 289 289 289 289 289 290 290 291 291 291 292 292 291 291 291 290 290 290 289 289 288 288 287 287 287 287 286 286 286 286 286 286 286 286 285 284 283 283 283 282 282 282 281 281 281 282 283 282 279 277 278 279 279 277 276 276 276 274 273 271 269 268 268
237 240 243 246 248 251 253 256 259 261 264 266 268 271 273 275 277 279 281 283 284 284 285 286 287 287 287 287 288 289 289 290 291 292 292 292 292 292 291 291 291 290 290 289 289 289 289 289 289 289 289 289 288 289 289 289 289 289 289 287 286 286 286 286 286 285 285 283 283 284 285 285 283 281 281 283 282 281 280 279 278 278 277 276 275 273 270 269
239 243 245 247 250 252 255 257 260 262 265 267 269 271 273 276 278 279 280 281 282 283 284 284 284 284 285 287 288 289 290 291 292 292 293 293 293 292 292 292 291 291 290 290 290 290 290 290 291 291 291 291 291 292 292 293 293 293 292 290 289 289 289 289 289 288 288 287 288 288 289 288 285 284 285 284 282 281 282 282 280 280 279 278 278 277 275 273
241 244 247 249 252 254 256 259 261 264 266 269 271 272 274 276 277 279 279 280 280 281 281 281 282 284 285 287 288 290 291 292 292 293 293 293 293 293 292 292 292 291 291 291 291 292 292 292 293 293 294 294 295 296 296 296 296 296 294 293 292 293 294 294 294 293 292 291 290 289 289 287 285 285 285 283 282 282 282 282 282 282 281 280 280 279 279 279
244 247 249 252 254 256 258 261 263 265 267 270 272 273 275 276 277 278 278 279 279 280 280 281 283 285 287 288 290 291 292 292 292 292 293 293 292 292 292 292 292 292 292 293 293 294 294 295 296 297 298 299 299 300 301 301 302 302 300 299 299 299 300 300 299 297 295 293 290 289 287 285 284 285 284 284 284 284 284 284 283 282 281 281 280 280 280 279
247 250 253 255 257 259 260 263 265 267 268 270 272 273 274 275 275 275 276 276 278 279 281 283 285 287 288 289 290 291 292 292 292 292 292 292 292 292 292 292 292 293 294 295 296 298 299 301 302 302 303 304 304 305 306 307 308 307 306 305 304 304 302 300 299 297 295 292 289 288 286 284 284 285 284 285 286 287 287 286 285 283 281 280 279 279 278 277
249 252 254 256 258 260 262 264 266 268 269 270 271 272 272 272 272 273 274 276 278 280 283 285 286 288 289 289 290 291 292 292 292 293 293 293 292 292 292 293 294 296 298 301 303 305 307 307 308 308 309 310 310 310 311 310 310 309 307 305 304 303 300 298 295 293 291 290 288 287 285 284 284 284 284 284 286 287 286 285 284 283 282 280 279 277 276 275
250 253 255 257 259 261 263 264 265 266 267 267 268 268 269 270 272 274 277 279 281 283 285 286 287 289 290 290 291 292 292 292 293 293 293 293 293 294 296 299 302 305 308 310 311 313 314 314 314 313 314 313 312 311 311 309 307 305 303 301 299 298 296 294 293 291 289 288 286 285 284 283 283 283 283 284 284 284 283 282 281 280 279 279 277 276 274 273
251 253 255 256 257 258 259 261 261 262 263 264 265 267 270 273 276 278 281 282 284 285 287 288 289 290 291 292 292 293 293 294 294 294 295 296 299 303 307 311 314 316 317 317 318 319 318 318 316 314 313 311 309 308 306 304 302 300 298 297 295 294 293 292 291 289 288 287 285 284 283 282 283 283 283 283 283 282 281 280 279 278 277 276 275 274 273 271
248 249 251 252 253 254 255 257 259 261 263 265 268 271 274 277 279 281 283 284 286 287 288 289 290 291 292 292 293 294 295 295 296 300 304 308 313 316 319 321 322 323 322 322 321 320 317 315 312 310 307 306 304 302 301 300 299 298 297 296 294 293 292 291 290 289 288 286 285 284 284 284 283 284 284 284 283 281 280 279 278 277 277 276 276 275 273 272
243 245 247 249 251 254 256 259 262 265 268 270 273 276 277 279 281 282 284 286 287 288 289 290 291 292 293 293 295 296 300 304 310 315 320 322 323 324 326 326 326 324 321 319 316 314 311 309 307 304 303 303 302 301 300 299 298 297 296 296 295 293 291 289 288 287 286 284 284 284 285 285 284 282 282 282 282 281 280 278 277 277 277 276 276 275 275 274
243 246 249 252 255 258 260 263 266 269 271 273 275 277 279 281 283 284 286 287 288 289 290 291 292 294 295 296 300 308 317 324 327 329 330 329 328 327 326 324 321 318 315 313 311 309 308 307 305 304 303 302 300 299 297 296 295 294 293 292 291 290 289 287 286 286 284 283 282 282 283 284 284 282 281 280 280 279 278 277 277 276 276 276 276 276 275 275
247 250 253 256 259 262 264 266 269 270 272 274 277 279 281 283 285 286 287 288 289 291 292 294 296 300 304 308 317 329 336 336 335 334 332 328 325 322 320 318 316 314 312 311 309 307 306 304 302 300 299 297 296 294 293 292 291 291 290 290 289 288 288 287 286 285 285 284 282 282 282 282 283 282 281 280 279 278 277 276 275 275 275 275 275 275 275 274
250 253 256 259 262 264 266 268 270 272 275 277 279 281 283 284 286 288 289 291 292 294 298 305 315 325 329 332 338 342 341 336 332 329 326 322 319 318 316 315 313 311 309 307 305 303 301 299 297 296 295 294 293 293 292 292 291 290 290 290 289 289 288 288 287 286 285 285 284 283 282 282 282 282 281 280 280 279 278 277 275 274 274 273 273 273 273 273
256 258 260 262 264 266 268 270 272 274 276 278 279 282 284 286 289 291 293 295 298 311 334 347 352 349 345 343 342 339 334 329 326 324 322 319 317 315 312 310 308 306 304 302 301 299 298 297 296 295 294 294 294 294 294 294 294 294 293 292 292 291 290 289 289 288 287 286 286 285 284 284 283 283 282 282 281 280 280 279 278 277 276 275 274 274 274 274
256 257 259 262 264 266 267 268 269 270 270 272 276 281 285 287 291 299 317 350 12 19 12 2 355 348 342 339 336 332 328 326 323 321 318 315 312 310 307 305 304 302 301 300 300 299 298 298 297 297 297 297 297 296 296 296 295 295 294 294 293 293 292 291 290 290 290 289 288 288 287 287 286 285 284 284 283 282 281 280 280 279 279 278 277 276 276 276
246 248 249 251 253 254 254 254 252 249 242 228 196 134 114 98 84 67 53 40 25 12 2 353 348 342 338 334 331 329 325 321 317 314 311 308 306 305 303 303 302 302 301 301 301 300 300 300 299 299 299 299 298 297 297 296 295 294 294 293 292 292 292 291 290 289 288 288 288 288 288 288 288 287 286 285 284 284 283 282 282 281 280 280 279 278 278 277
201 202 201 199 196 186 174 159 149 141 131 121 112 104 96 87 74 58 40 23 8 358 352 347 341 336 332 328 325 321 317 313 310 307 306 304 304 304 303 303 303 302 302 302 302 302 302 301 301 300 300 299 298 297 296 295 294 293 292 292 291 290 289 289 289 288 287 287 286 286 287 287 287 287 287 287 286 286 285 284 284 283 282 281 281 280 279 278
137 132 129 125 122 119 117 116 116 116 115 110 103 93 80 66 49 33 15 4 358 351 345 338 331 325 322 318 315 311 309 307 306 306 306 305 305 305 305 305 305 304 304 304 303 303 302 301 300 300 299 298 297 296 295 294 293 293 292 292 291 291 290 290 290 289 289 288 288 287 288 288 287 287 287 287 286 286 285 284 284 283 282 282 281 280 280 279
117 115 115 114 113 113 113 112 111 108 103 97 85 70 52 36 22 11 360 353 348 341 333 326 320 316 313 312 310 309 309 309 309 309 309 309 309 308 308 307 306 305 304 303 302 302 301 301 300 300 299 299 298 298 297 296 295 294 294 293 292 292 291 291 291 291 290 290 289 288 288 288 288 288 287 287 286 285 284 283 283 282 281 281 280 280 279 278
111 110 110 109 108 107 105 100 95 88 79 68 55 42 28 16 6 356 347 341 333 327 323 319 316 313 312 312 312 312 313 313 313 313 312 311 310 309 307 306 305 304 303 303 303 303 303 303 303 302 301 301 300 299 298 297 296 295 294 294 293 293 292 292 292 292 293 293 293 292 292 292 292 292 291 290 289 288 287 286 285 284 284 283 282 282 281 280
110 108 107 104 99 93 87 79 71 63 54 45 36 24 12 1 351 341 335 330 324 321 320 319 317 315 315 316 317 317 317 316 315 314 312 310 308 307 306 305 305 305 305 306 306 306 305 304 302 301 301 300 300 300 300 301 301 301 301 301 300 300 300 299 298 297 297 297 297 296 296 296 296 295 294 292 291 291 291 290 289 289 288 287 287 286 285 284
104 101 96 90 84 79 72 65 57 46 36 28 18 7 357 347 339 334 330 326 323 321 321 321 321 321 321 321 320 319 318 315 313 311 310 309 309 308 308 308 308 308 308 307 307 306 305 305 305 305 305 305 306 306 306 307 307 307 306 306 305 304 303 302 301 300 299 297 296 296 296 297 296 294 293 292 291 292 292 292 292 292 292 291 291 291 290 289
94 89 84 79 74 67 59 50 40 29 20 12 4 354 346 340 336 332 329 328 328 327 327 328 328 327 325 323 321 318 316 314 313 313 313 312 311 311 311 311 311 310 310 310 310 311 311 311 312 312 311 311 311 311 310 309 308 307 305 304 303 302 302 301 300 299 298 296 294 294 295 295 295 293 291 291 291 291 292 292 292 292 293 293 293 293 293 292
86 81 75 67 59 51 43 34 25 16 9 3 355 348 344 340 335 332 332 333 333 333 333 333 330 327 324 321 318 317 316 316 317 316 314 313 313 313 313 313 314 315 316 317 317 317 316 316 315 315 314 313 312 311 309 308 306 305 303 302 302 301 301 300 299 298 298 296 295 294 295 295 295 293 291 290 291 291 291 291 291 292 292 293 293 293 293 293
75 68 59 51 44 36 29 22 14 7 2 357 351 346 342 337 336 336 335 333 334 336 335 332 327 323 321 320 320 321 321 320 319 317 317 317 318 318 319 320 321 321 321 320 319 318 317 317 316 315 314 312 311 309 307 306 306 305 304 304 303 303 303 302 301 301 301 300 298 298 297 297 297 296 294 293 292 292 292 291 291 292 292 292 292 293 293 293
60 52 45 38 31 24 19 13 6 2 357 352 347 343 340 339 339 337 333 333 336 337 333 328 324 323 323 324 325 325 322 320 320 321 323 324 324 325 325 324 324 323 322 320 320 319 318 317 316 314 313 311 310 309 308 308 307 307 306 306 306 306 305 305 304 304 304 304 302 301 300 300 300 298 295 294 294 293 293 292 292 292 292 292 291 291 291 292
46 40 34 28 23 18 12 6 0 356 351 348 346 345 344 342 336 333 334 338 338 334 329 326 325 325 327 327 326 323 321 322 324 326 328 329 329 328 328 328 326 325 323 322 322 321 319 317 315 313 313 313 313 312 311 310 309 309 308 307 307 307 307 307 306 305 305 305 302 301 301 301 301 299 296 294 293 293 292 292 292 292 292 291 291 291 291 291
35 31 26 21 16 11 5 0 356 353 350 350 349 348 344 336 332 336 341 340 335 330 328 328 328 329 329 328 326 326 327 329 331 333 334 333 332 331 330 329 327 325 324 323 321 318 316 315 315 315 315 316 316 316 315 314 313 312 310 309 307 306 305 304 303 303 303 302 299 297 298 299 299 299 297 295 294 293 293 293 293 293 292 292 292 292 292 291
28 24 19 15 11 5 0 357 355 353 352 352 350 344 336 332 338 343 341 336 332 331 331 331 332 332 331 331 331 333 335 337 338 338 336 333 331 327 324 321 319 319 320 320 319 318 317 318 319 319 318 317 316 315 315 314 313 312 310 308 306 303 301 299 298 297 298 299 298 297 298 299 298 299 298 297 297 297 297 298 298 297 297 296 294 293 292 292
22 18 14 10 5 0 358 357 355 353 352 353 346 336 334 341 345 342 337 334 334 334 335 335 336 335 336 337 338 340 341 341 339 336 333 330 326 323 321 321 322 322 322 323 323 322 322 322 322 321 319 317 315 313 312 311 311 310 310 309 308 307 306 305 304 303 302 302 302 301 302 301 300 300 298 298 299 300 300 301 301 300 299 297 295 294 294 293
16 13 10 6 1 360 360 357 354 354 355 350 339 337 343 346 343 337 336 337 338 339 340 340 341 341 342 343 344 344 343 340 337 334 332 329 328 328 327 328 328 327 327 327 326 324 322 321 319 319 318 318 318 317 316 316 315 315 316 316 316 315 315 315 314 312 311 310 309 307 307 306 304 302 300 301 302 302 302 302 302 301 299 297 296 295 295 294
12 9 5 2 1 1 359 356 356 357 353 345 342 347 349 344 339 339 341 342 343 345 345 346 347 347 347 347 346 345 342 339 337 334 333 332 332 332 332 331 331 330 329 328 327 326 325 322 321 321 321 322 322 321 320 320 320 320 320 320 320 319 318 317 317 315 314 314 314 313 313 312 309 307 306 307 307 306 306 305 304 302 300 298 298 297 297 298
9 5 2 1 3 1 358 358 360 356 348 347 352 352 346 341 342 345 346 347 349 350 350 350 351 350 349 348 347 345 342 340 337 336 337 337 337 337 336 335 334 332 330 329 328 328 327 325 325 326 326 326 325 324 323 323 323 324 324 323 321 320 319 318 317 316 314 315 317 316 316 315 310 309 311 311 311 311 311 309 308 306 304 303 303 303 303 303
6 3 0 3 3 0 1 2 357 349 349 354 356 350 344 345 349 350 351 353 354 354 354 354 353 352 351 350 348 345 343 341 341 342 344 344 343 342 340 338 336 334 332 331 330 329 330 329 327 328 329 328 327 326 327 328 329 328 326 324 322 321 321 320 318 317 315 316 319 320 320 317 313 314 317 316 317 318 316 313 312 309 307 307 308 308 308 306
4 1 2 5 2 1 4 360 351 350 355 357 353 348 348 352 354 356 358 359 358 358 357 356 355 354 352 350 347 345 344 346 347 349 349 348 346 344 342 340 339 337 335 334 334 333 333 332 329 329 330 329 330 331 332 333 333 331 329 326 324 322 322 321 320 319 318 319 322 324 323 320 318 320 322 321 322 321 317 315 313 311 310 311 312 312 310 306
2 2 6 5 2 5 2 353 351 357 359 355 351 351 355 358 1 2 3 2 2 1 359 358 356 354 352 349 347 348 350 352 352 352 352 351 349 347 346 344 343 341 340 339 338 337 336 335 334 334 334 333 334 334 334 333 333 332 330 328 326 325 324 323 323 322 320 321 324 326 326 324 322 324 325 323 323 321 318 316 314 313 314 315 315 313 308 304
3 5 7 4 5 4 355 352 358 0 357 354 355 358 1 5 6 7 6 5 4 2 0 359 356 354 352 350 351 354 355 356 355 355 355 354 353 352 350 349 348 346 345 343 343 341 340 339 339 339 339 337 336 335 334 334 334 332 330 328 327 327 326 325 324 323 322 323 327 329 330 327 323 325 325 324 323 321 318 316 314 315 317 318 317 313 308 304
5 7 6 4 4 359 353 358 2 358 356 358 1 4 8 10 10 9 8 6 5 3 1 359 357 355 355 356 357 358 358 359 358 358 358 357 357 356 354 353 352 350 349 348 346 345 344 343 342 342 341 340 339 339 339 338 336 333 331 330 329 329 327 325 325 326 325 328 330 330 330 328 324 324 325 324 323 320 317 315 315 318 320 320 317 313 308 307
7 7 5 3 0 357 358 2 0 357 1 5 7 10 13 13 12 10 9 8 6 4 2 1 360 359 0 0 0 0 1 1 1 0 360 360 359 359 357 356 355 354 353 352 350 349 348 347 346 346 345 344 343 343 342 339 336 333 332 332 331 331 329 328 329 329 329 331 330 328 329 328 324 324 325 323 322 320 317 315 317 321 323 320 316 312 309 309
8 7 4 2 359 358 360 1 0 3 8 10 11 14 15 15 14 12 11 9 6 4 3 3 3 3 3 2 3 3 3 2 1 1 0 0 0 360 359 358 358 357 356 355 354 353 352 350 349 349 349 347 345 344 342 339 337 336 335 334 334 333 333 332 332 332 331 332 329 327 330 330 325 324 325 323 322 320 318 317 320 324 324 320 315 313 312 311
8 7 4 360 357 358 1 3 5 9 13 14 16 17 17 17 16 14 12 9 7 6 6 6 5 4 4 5 5 5 3 2 1 1 0 0 0 0 359 359 358 358 357 356 356 356 354 352 350 350 350 348 345 344 344 342 341 340 339 338 337 337 336 335 334 331 332 333 329 327 330 331 327 326 326 324 322 320 319 320 323 327 326 322 318 316 315 314
8 6 1 358 358 0 3 6 10 14 16 17 18 19 19 19 16 14 11 10 10 9 8 7 6 5 6 7 6 4 3 1 0 0 0 0 1 0 359 359 358 358 357 357 357 357 356 354 352 351 350 349 347 346 346 345 343 342 341 340 340 340 338 336 333 331 332 334 331 327 329 331 330 328 327 324 322 321 321 324 329 330 327 323 321 320 318 315
9 4 359 358 0 3 7 11 15 18 18 20 21 21 21 19 16 14 12 12 12 10 9 8 7 8 8 7 6 4 2 1 360 360 360 360 1 0 359 359 358 358 357 357 357 357 356 356 354 352 351 350 348 346 346 345 344 343 342 341 341 341 339 336 332 331 332 334 333 330 330 331 332 331 329 326 324 324 326 329 333 331 326 323 322 321 318 315
6 1 359 1 3 7 12 16 18 20 21 22 23 22 21 18 16 15 14 14 13 11 10 9 9 9 8 7 5 3 1 360 359 359 359 359 360 360 359 358 358 357 357 356 356 356 356 356 355 353 351 350 348 346 345 345 344 343 342 341 342 340 338 335 332 331 333 334 333 333 332 332 333 334 333 330 327 327 328 332 334 330 326 324 323 321 319 316
2 359 0 3 7 12 17 19 21 22 23 24 24 22 20 19 17 17 16 15 14 13 12 11 10 9 8 6 4 2 1 360 359 358 358 358 358 359 359 358 357 357 357 356 356 356 356 356 355 354 351 350 348 346 345 345 344 343 342 342 342 339 337 335 333 332 334 334 333 335 336 335 335 336 335 332 329 327 328 334 335 331 328 328 325 323 321 319
360 360 2 6 12 17 20 22 23 24 25 26 24 22 20 19 18 17 17 17 15 14 13 11 10 8 6 4 3 2 1 360 359 358 358 358 358 358 358 358 357 357 356 356 355 355 355 355 355 354 352 350 348 346 345 345 344 343 342 342 341 339 338 336 333 332 335 335 335 336 338 338 337 336 336 334 330 328 331 338 338 333 331 330 327 325 323 321
359 2 5 11 16 20 23 25 25 26 27 26 24 22 20 20 19 19 19 18 17 15 13 11 8 6 5 4 2 1 360 359 359 358 358 358 358 358 358 357 357 356 356 356 355 355 355 355 355 355 352 350 349 347 346 345 345 344 342 341 340 339 338 336 333 333 336 337 337 338 339 339 338 337 337 337 333 330 332 339 339 334 332 332 329 326 325 323
1 4 9 15 20 24 26 27 27 28 28 26 24 22 22 22 22 22 21 19 18 15 12 10 8 6 5 3 2 1 0 359 359 359 358 358 358 358 358 357 357 357 355 355 355 354 354 354 354 354 353 351 349 348 346 346 346 344 341 341 341 339 339 337 335 335 338 339 340 341 341 341 339 337 338 339 334 330 331 337 338 334 333 332 330 329 327 325
3 8 14 20 24 28 29 28 29 30 28 25 24 24 25 25 24 24 22 20 17 15 11 10 9 7 5 4 3 2 1 0 -0 359 359 359 359 358 358 358 357 356 355 355 355 354 354 353 353 354 353 352 350 348 347 347 346 344 341 341 342 339 340 340 338 338 340 341 341 342 341 341 339 338 339 340 336 331 331 337 338 336 336 335 332 331 329 326